SCP
-0 -0 -0 -0 -0 -0 -0 -0 0 -0 -0 -0 -0 0 0 0 -0 -0 -0 0 0 0 0 0 0 0 0 0 0 0 0 -0 -0 0 0 0 0 -0 0 0 0 0 -0 0 -0
-0 -0 -0 -0 -0 -0 -0 -0 -0 -0 -0 -0 -0 0 0 0 -0 0 0 0 -0 0 0 0 0 0 0 0 0 0 -0 -0 0 -0 0 0 0 0 -0 -0 -0 -0 -0 -0 -0
-0 -0 -0 -0 -0 -0 -0 -0 -0 -0 -0 -0 0 0 0 0 0 0 0 -0 0 0 0 0 0 0 0 0 0 -0 -0 -0 0 0 -0 0 0 0 0 -0 0 -0 -0 -0 -0
-0 -0 -0 -0 -0 -0 -0 -0 -0 -0 -0 -0 0 0 0 -0 0 0 0 0 0 0 0 0 0 0 0 0 0 -0 0 0 0 0 0 0 0 0 0 0 -0 -0 0 -0 0
-0 -0 -0 -0 -0 -0 -0 -0 -0 -0 -0 -0 0 0 0 0 0 0 0 0 0 0 0 0 0 0 0 -0 0 -0 0 0 0 0 0 0 0 0 0 0 0 0 0 -0 0
-0 -0 -0 -0 -0 -0 -0 -0 -0 -0 -0 -0 0 0 0 0 0 -0 0 0 0 0 0 0 0 0 0 0 0 0 0 0 0 0 0 0 0 1 -0 0 0 0 0 0 0
-0 -0 -0 -0 -0 -0 -0 -0 -0 -0 -0 0 0 0 0 -0 0 0 0 0 -0 0 0 0 0 0 0 0 0 0 0 0 -0 0 0 0 1 1 0 -0 0 0 0 0 0
-0 -0 -0 -0 -0 -0 -0 -0 -0 -0 -0 0 0 0 0 0 -0 -0 0 0 0 -0 0 0 0 0 0 -0 -0 0 0 0 -0 0 0 0 1 0 0 0 0 0 0 0 0
-0 -0 -0 -0 -0 -0 -0 -0 -0 0 0 0 0 0 0 0 0 -0 -0 0 0 0 0 0 0 0 0 0 0 0 0 0 -0 0 0 0 0 0 0 0 0 0 0 0 0
-0 -0 -0 -0 -0 -0 -0 -0 0 0 0 0 0 0 -0 0 0 0 -0 -0 0 0 -0 0 0 0 0 0 0 0 0 -0 0 0 0 0 1 0 0 0 0 0 0 0 0
-0 -0 -0 -0 -0 0 0 0 0 0 0 0 0 0 0 0 -0 0 -0 -0 -0 0 0 0 0 0 0 0 0 -0 -0 -0 -0 0 0 0 1 0 0 0 0 0 0 0 0
-0 -0 -0 -0 -0 -0 0 0 0 0 0 0 -0 -0 -0 -0 0 0 0 0 0 0 0 0 0 0 0 0 0 0 0 0 0 0 0 0 1 0 1 1 1 1 0 0 0
-0 -0 -0 -0 -0 0 0 0 0 0 0 0 0 -0 -0 0 0 0 0 0 0 -0 -0 0 -0 0 0 0 0 0 -0 0 0 0 0 0 1 2 1 1 1 1 0 0 -0
-0 -0 -0 -0 0 -0 0 0 0 0 0 0 0 0 0 -0 -0 -0 -0 0 0 -0 0 0 0 0 0 0 0 0 0 0 -0 0 0 0 0 1 0 0 0 1 0 0 -0
-0 -0 -0 0 0 0 0 0 0 0 0 0 0 0 0 0 0 -0 -0 0 0 0 -0 -0 0 0 0 0 0 0 0 0 0 0 0 0 0 0 0 0 0 0 0 0 0
-0 -0 -0 0 0 0 0 0 0 0 0 0 0 0 0 0 0 -0 0 0 0 0 0 0 0 0 0 0 0 0 0 0 0 0 0 0 0 0 0 1 0 -0 1 0 0
-0 -0 0 0 0 0 0 0 0 0 0 0 0 0 0 0 0 -0 0 0 0 0 0 0 0 0 0 0 0 -0 0 0 0 0 0 0 0 0 0 0 0 0 0 0 0
-0 -0 0 0 0 0 0 0 0 -0 -0 -0 0 -0 0 0 0 0 0 0 0 0 0 0 0 0 0 0 0 -0 0 0 0 0 0 0 0 0 0 0 0 0 0 0 -0
-0 0 0 0 -0 0 0 0 0 0 0 0 0 0 0 0 0 0 0 0 0 0 0 0 -0 -0 0 0 0 -0 0 0 0 -0 0 0 0 0 0 0 -0 0 0 0 0
0 0 0 0 0 0 0 0 0 0 -0 0 0 0 0 0 0 0 0 0 0 0 0 0 0 -0 0 0 0 0 0 0 0 0 0 0 0 0 -0 -0 0 0 0 0 0
0 0 0 0 0 0 0 0 0 0 0 0 0 0 0 0 0 0 -0 0 0 0 0 0 0 0 0 0 0 0 0 0 0 0 0 0 0 0 -0 0 0 0 0 0 0
0 0 0 0 0 0 0 0 0 0 0 0 0 0 0 0 -0 0 0 0 0 0 0 0 0 0 0 0 0 0 0 0 0 0 0 0 0 0 0 0 0 1 0 0 0
0 0 0 0 0 0 0 0 0 0 0 0 -0 0 0 0 0 0 0 0 -0 0 0 0 0 0 0 0 0 0 0 0 0 0 0 0 0 0 0 0 0 0 0 0 0
0 0 0 0 0 0 0 0 0 0 0 0 0 0 0 0 0 0 0 0 -0 0 -0 -0 0 0 0 0 0 0 0 0 0 0 0 0 0 0 0 0 0 0 0 0 0
0 0 0 0 0 0 0 0 0 0 0 0 0 -0 -0 0 0 0 0 0 -0 -0 -0 -0 0 0 0 0 0 0 0 0 0 0 0 0 0 0 0 0 0 0 0 0 0
0 0 0 0 0 0 0 0 0 0 0 0 0 0 0 0 0 0 0 0 0 0 -0 0 0 0 0 0 0 0 0 0 0 0 0 0 0 0 0 0 0 0 0 0 0
0 0 0 0 0 0 0 0 0 0 0 0 0 0 0 0 -0 -0 0 0 0 0 -0 -0 0 0 0 0 0 0 0 0 0 0 0 0 0 0 0 0 0 0 0 0 0
Wind_Speed_500mb
30 31 31 32 32 31 30 29 29 29 29 29 28 26 24 27 29 37 47 36 23 18 19 20 18 21 16 33 33 38 6 16 26 14 7 48 14 12 33 36 23 32 68 56 47
31 31 33 32 34 34 33 31 30 30 29 29 28 25 24 30 37 44 33 26 33 26 23 19 19 19 33 32 22 12 5 16 22 28 11 32 24 30 15 44 44 58 57 46 37
33 34 34 35 34 35 35 35 33 30 29 28 27 23 24 29 36 11 9 12 24 27 27 29 32 44 42 42 45 38 15 20 46 50 13 43 55 57 49 36 40 48 51 47 48
34 35 36 36 36 37 37 36 35 32 30 27 25 22 23 25 4 6 13 8 10 22 26 26 26 41 11 15 47 12 44 48 53 56 18 31 53 23 56 45 41 45 46 45 43
36 37 37 38 37 36 38 37 36 33 29 26 24 21 22 16 33 18 9 5 10 19 27 29 27 38 16 19 37 15 17 46 53 45 38 45 15 28 50 59 53 46 44 36 36
38 39 39 38 39 39 37 37 36 33 28 23 22 20 21 16 5 7 11 11 8 20 21 27 33 38 41 31 14 46 39 38 39 16 35 39 26 25 41 60 48 43 45 49 49
41 41 41 40 40 38 38 36 36 32 24 21 19 20 28 43 1 9 11 8 16 12 22 28 32 44 40 20 54 49 9 15 19 11 10 73 22 20 57 62 59 56 46 49 50
44 45 44 43 42 40 37 36 33 28 19 17 17 19 24 13 11 22 26 14 6 23 30 30 34 39 22 39 38 18 3 5 17 15 21 23 16 39 68 60 56 54 47 44 44
47 47 46 46 46 41 36 32 30 20 14 12 14 15 26 8 32 33 31 25 26 25 27 30 20 14 26 12 13 10 7 14 20 23 15 14 22 44 65 59 54 53 48 45 42
48 48 47 45 47 44 33 28 21 16 9 11 18 14 26 24 26 28 29 31 26 21 29 23 8 7 12 3 13 14 16 19 22 18 18 15 27 39 63 60 55 60 57 54 44
51 51 48 44 43 42 27 13 25 5 8 18 18 33 39 21 23 26 33 28 28 27 13 31 7 13 25 24 27 19 12 23 19 18 18 10 25 38 56 52 54 59 63 60 53
52 53 49 42 39 22 18 15 20 33 38 43 60 68 71 45 48 34 41 34 27 14 18 11 17 24 25 28 30 26 23 27 9 30 16 17 22 26 21 28 59 62 62 65 65
54 55 54 40 31 13 26 21 27 29 15 43 67 65 66 46 49 44 38 43 18 17 22 18 22 32 31 27 25 20 17 16 14 12 10 13 8 14 15 23 29 54 69 74 73
53 52 56 43 12 27 12 23 19 30 7 15 19 17 58 54 39 43 53 43 20 22 25 19 31 34 26 25 18 19 16 23 6 10 12 13 10 17 15 10 10 18 60 71 73
51 51 50 41 30 20 23 22 32 16 9 9 18 11 33 44 9 44 44 53 23 26 17 26 25 22 27 12 12 15 16 16 15 8 11 4 6 10 21 0 12 25 58 74 77
50 44 48 32 23 12 23 26 21 3 12 11 11 15 18 37 51 56 46 47 46 25 31 31 52 15 16 21 19 16 14 17 13 9 4 20 10 4 17 30 36 84 50 73 78
52 39 38 24 17 20 21 18 5 6 17 12 7 8 19 21 33 32 26 21 16 12 19 30 34 25 34 13 11 11 9 5 7 4 11 6 6 5 5 36 41 50 43 67 74
52 41 26 13 14 10 10 6 5 18 25 41 37 47 20 23 23 35 28 23 20 18 12 20 24 30 25 14 22 17 17 11 12 3 6 8 7 3 25 29 20 43 36 59 65
49 33 10 7 18 11 5 3 8 8 17 35 50 33 38 27 15 26 32 30 24 25 19 8 21 25 29 17 13 19 18 17 4 4 7 8 8 14 10 21 34 32 52 83 81
51 25 10 7 2 1 1 9 10 29 42 34 34 34 40 37 22 42 14 34 29 27 26 20 20 40 30 22 19 12 10 4 6 7 9 5 8 9 16 22 21 37 62 72 78
31 17 11 7 14 8 5 11 24 46 46 34 34 33 35 34 23 23 18 36 29 28 26 29 16 39 11 3 16 10 4 4 7 9 9 7 8 15 23 14 26 46 71 82 67
17 7 10 6 6 11 9 14 33 34 54 34 32 25 25 20 22 24 30 21 53 30 31 22 15 13 22 25 14 13 12 15 11 8 3 11 11 9 21 20 31 60 70 76 82
39 15 16 25 5 8 21 29 39 25 21 19 16 40 21 22 16 17 29 51 33 22 38 14 10 8 4 12 16 12 12 3 12 8 7 10 8 8 9 11 32 68 70 75 79
17 8 15 12 20 14 16 12 25 40 17 11 20 56 29 23 26 21 29 38 24 37 53 40 13 20 21 16 13 8 9 2 10 9 12 12 11 10 10 8 15 54 73 80 82
13 8 22 9 18 31 25 20 28 30 19 29 12 23 19 13 28 20 30 28 28 26 34 8 10 13 14 23 13 16 14 12 6 5 10 10 19 16 9 9 13 53 72 75 69
14 16 22 34 34 27 18 15 27 26 21 17 7 21 17 12 16 34 13 9 12 8 6 13 12 12 13 15 18 16 20 15 14 11 6 16 11 12 36 25 8 43 73 63 73
23 33 14 23 18 15 15 28 34 32 20 42 26 6 16 27 25 50 34 30 30 39 7 4 7 13 10 11 10 28 24 24 16 16 17 10 17 22 9 10 13 7 60 70 76
Wind_Direction_500mb
357 354 353 350 345 341 335 328 324 322 321 321 317 308 304 300 290 280 266 259 255 227 271 264 254 275 276 267 274 281 307 275 279 304 209 136 130 231 120 82 111 130 135 141 138
351 351 349 348 345 341 338 332 323 318 317 317 316 309 306 306 304 282 285 258 224 232 267 267 249 232 243 258 252 216 249 257 271 282 242 133 122 121 107 74 96 111 126 139 155
348 347 345 343 342 339 338 333 326 319 313 312 312 306 306 315 318 315 345 240 232 231 250 251 252 274 251 242 245 246 236 263 275 292 135 145 126 132 143 124 133 137 143 135 124
345 342 341 339 338 336 334 332 328 321 312 308 306 300 302 309 290 333 323 328 240 232 244 228 251 268 258 240 248 218 244 246 265 279 83 150 140 125 122 126 138 138 129 139 132
344 340 339 337 335 333 330 329 326 321 310 301 299 293 300 300 260 288 301 325 235 213 209 197 246 262 256 254 256 241 244 245 259 269 109 128 112 126 134 130 144 140 132 131 129
345 341 338 335 333 331 328 326 322 319 306 293 290 283 287 259 131 252 294 237 232 198 187 219 244 245 254 262 243 263 226 246 262 250 117 114 133 100 165 137 143 138 147 143 139
346 343 339 335 331 329 327 323 320 316 303 285 280 274 269 249 153 255 295 262 193 206 212 228 252 260 271 291 272 278 224 246 265 227 154 136 103 110 153 153 156 151 147 142 136
344 342 340 336 331 328 326 321 317 311 297 276 268 266 263 275 228 224 219 257 221 205 236 266 288 269 290 296 308 273 289 257 257 200 206 161 137 154 157 156 147 146 147 133 135
341 339 339 338 332 328 327 318 314 308 289 261 259 252 268 304 237 212 216 226 221 230 247 259 310 312 281 292 314 264 221 238 262 207 173 154 128 158 159 157 153 148 152 141 132
340 337 337 338 334 330 333 320 321 295 266 250 227 285 256 238 213 219 212 228 214 223 230 242 262 241 293 265 241 233 214 241 235 217 183 176 141 163 167 164 163 158 154 145 144
342 337 335 337 335 331 344 349 2 356 222 240 253 222 285 270 217 200 213 221 230 217 206 228 184 222 231 238 245 260 264 254 275 179 154 156 135 169 175 169 164 166 153 155 154
345 340 335 336 334 334 355 352 330 301 298 275 262 250 261 261 270 204 207 209 239 215 218 261 221 238 239 239 241 251 260 274 295 131 114 187 153 166 180 196 172 165 157 155 151
343 342 338 337 335 335 331 348 345 321 284 286 249 236 235 250 253 194 198 204 214 230 244 205 240 225 241 254 256 251 242 267 191 174 184 134 99 135 199 211 180 169 164 160 156
340 341 338 337 356 318 360 339 316 332 302 271 195 248 223 232 265 237 198 202 218 237 230 248 248 249 244 242 244 260 249 262 256 172 186 166 218 197 192 168 219 213 155 157 157
340 337 337 329 327 346 323 333 339 325 335 324 151 180 182 199 162 219 221 197 208 228 237 251 248 255 252 226 251 239 290 272 256 105 72 256 125 222 156 85 354 303 190 168 166
342 337 332 327 328 339 357 333 326 336 253 284 132 166 168 198 226 250 211 223 216 233 264 259 271 264 239 253 227 234 248 288 278 126 117 240 171 238 172 147 145 200 195 167 168
341 334 322 319 301 300 298 347 6 232 311 264 28 212 191 202 215 238 191 212 218 197 251 276 273 278 267 233 260 236 169 296 345 345 223 344 55 302 201 174 186 194 191 164 160
342 335 325 6 344 342 24 3 253 273 275 322 326 333 298 191 210 214 232 210 220 207 255 229 270 260 261 174 207 226 164 166 200 198 295 1 324 310 202 246 269 202 168 150 159
343 343 2 60 22 14 325 252 242 249 297 326 326 316 321 318 200 199 211 225 206 187 213 249 259 263 229 214 219 269 203 198 226 215 159 200 54 329 213 213 228 206 147 160 176
343 352 21 176 336 233 123 257 291 303 294 294 299 307 308 307 345 359 300 220 217 194 189 235 262 276 282 213 241 178 176 256 344 207 234 144 130 181 233 227 199 183 157 170 171
345 345 200 243 338 211 219 255 291 291 292 301 297 288 292 305 334 331 296 293 206 212 193 214 172 269 300 268 198 284 191 85 123 150 157 140 247 201 223 153 156 159 167 175 170
11 297 181 329 253 243 232 257 304 319 329 316 297 287 298 292 295 301 309 293 304 305 258 199 173 217 243 276 272 197 222 162 124 251 59 130 240 264 134 182 178 156 162 169 169
336 282 329 208 277 331 357 345 334 352 323 1 320 319 304 295 308 284 289 292 303 322 327 210 212 209 270 300 303 253 249 158 112 83 164 129 252 183 6 92 132 146 162 166 164
340 312 352 344 7 19 358 313 333 325 315 18 334 302 356 321 294 291 287 287 338 323 339 290 182 177 206 197 217 233 295 18 141 126 180 191 173 164 83 356 155 153 160 166 168
8 358 11 331 335 323 306 286 297 302 332 10 340 26 28 312 327 348 357 332 350 329 332 57 247 181 188 193 214 212 258 262 121 233 126 275 192 185 157 212 157 154 160 164 164
32 356 339 302 308 315 298 316 330 356 10 338 57 346 356 354 322 310 338 316 303 312 2 4 312 295 210 205 221 224 188 235 255 130 189 101 36 123 187 174 221 146 162 162 154
19 351 313 291 296 294 334 338 328 347 7 353 336 277 306 295 205 280 255 265 261 280 270 45 51 13 296 236 250 259 197 202 226 225 164 177 183 125 185 124 88 130 163 154 151
Wind_Speed_850mb
30 31 31 32 32 31 30 29 29 29 29 29 28 26 24 27 29 37 47 36 23 18 19 20 18 21 16 33 33 38 6 16 26 14 7 48 14 12 33 36 23 32 68 56 47
31 31 33 32 34 34 33 31 30 30 29 29 28 25 24 30 37 44 33 26 33 26 23 19 19 19 33 32 22 12 5 16 22 28 11 32 24 30 15 44 44 58 57 46 37
33 34 34 35 34 35 35 35 33 30 29 28 27 23 24 29 36 11 9 12 24 27 27 29 32 44 42 42 45 38 15 20 46 50 13 43 55 57 49 36 40 48 51 47 48
34 35 36 36 36 37 37 36 35 32 30 27 25 22 23 25 4 6 13 8 10 22 26 26 26 41 11 15 47 12 44 48 53 56 18 31 53 23 56 45 41 45 46 45 43
36 37 37 38 37 36 38 37 36 33 29 26 24 21 22 16 33 18 9 5 10 19 27 29 27 38 16 19 37 15 17 46 53 45 38 45 15 28 50 59 53 46 44 36 36
38 39 39 38 39 39 37 37 36 33 28 23 22 20 21 16 5 7 11 11 8 20 21 27 33 38 41 31 14 46 39 38 39 16 35 39 26 25 41 60 48 43 45 49 49
41 41 41 40 40 38 38 36 36 32 24 21 19 20 28 43 1 9 11 8 16 12 22 28 32 44 40 20 54 49 9 15 19 11 10 73 22 20 57 62 59 56 46 49 50
44 45 44 43 42 40 37 36 33 28 19 17 17 19 24 13 11 22 26 14 6 23 30 30 34 39 22 39 38 18 3 5 17 15 21 23 16 39 68 60 56 54 47 44 44
47 47 46 46 46 41 36 32 30 20 14 12 14 15 26 8 32 33 31 25 26 25 27 30 20 14 26 12 13 10 7 14 20 23 15 14 22 44 65 59 54 53 48 45 42
48 48 47 45 47 44 33 28 21 16 9 11 18 14 26 24 26 28 29 31 26 21 29 23 8 7 12 3 13 14 16 19 22 18 18 15 27 39 63 60 55 60 57 54 44
51 51 48 44 43 42 27 13 25 5 8 18 18 33 39 21 23 26 33 28 28 27 13 31 7 13 25 24 27 19 12 23 19 18 18 10 25 38 56 52 54 59 63 60 53
52 53 49 42 39 22 18 15 20 33 38 43 60 68 71 45 48 34 41 34 27 14 18 11 17 24 25 28 30 26 23 27 9 30 16 17 22 26 21 28 59 62 62 65 65
54 55 54 40 31 13 26 21 27 29 15 43 67 65 66 46 49 44 38 43 18 17 22 18 22 32 31 27 25 20 17 16 14 12 10 13 8 14 15 23 29 54 69 74 73
53 52 56 43 12 27 12 23 19 30 7 15 19 17 58 54 39 43 53 43 20 22 25 19 31 34 26 25 18 19 16 23 6 10 12 13 10 17 15 10 10 18 60 71 73
51 51 50 41 30 20 23 22 32 16 9 9 18 11 33 44 9 44 44 53 23 26 17 26 25 22 27 12 12 15 16 16 15 8 11 4 6 10 21 0 12 25 58 74 77
50 44 48 32 23 12 23 26 21 3 12 11 11 15 18 37 51 56 46 47 46 25 31 31 52 15 16 21 19 16 14 17 13 9 4 20 10 4 17 30 36 84 50 73 78
52 39 38 24 17 20 21 18 5 6 17 12 7 8 19 21 33 32 26 21 16 12 19 30 34 25 34 13 11 11 9 5 7 4 11 6 6 5 5 36 41 50 43 67 74
52 41 26 13 14 10 10 6 5 18 25 41 37 47 20 23 23 35 28 23 20 18 12 20 24 30 25 14 22 17 17 11 12 3 6 8 7 3 25 29 20 43 36 59 65
49 33 10 7 18 11 5 3 8 8 17 35 50 33 38 27 15 26 32 30 24 25 19 8 21 25 29 17 13 19 18 17 4 4 7 8 8 14 10 21 34 32 52 83 81
51 25 10 7 2 1 1 9 10 29 42 34 34 34 40 37 22 42 14 34 29 27 26 20 20 40 30 22 19 12 10 4 6 7 9 5 8 9 16 22 21 37 62 72 78
31 17 11 7 14 8 5 11 24 46 46 34 34 33 35 34 23 23 18 36 29 28 26 29 16 39 11 3 16 10 4 4 7 9 9 7 8 15 23 14 26 46 71 82 67
17 7 10 6 6 11 9 14 33 34 54 34 32 25 25 20 22 24 30 21 53 30 31 22 15 13 22 25 14 13 12 15 11 8 3 11 11 9 21 20 31 60 70 76 82
39 15 16 25 5 8 21 29 39 25 21 19 16 40 21 22 16 17 29 51 33 22 38 14 10 8 4 12 16 12 12 3 12 8 7 10 8 8 9 11 32 68 70 75 79
17 8 15 12 20 14 16 12 25 40 17 11 20 56 29 23 26 21 29 38 24 37 53 40 13 20 21 16 13 8 9 2 10 9 12 12 11 10 10 8 15 54 73 80 82
13 8 22 9 18 31 25 20 28 30 19 29 12 23 19 13 28 20 30 28 28 26 34 8 10 13 14 23 13 16 14 12 6 5 10 10 19 16 9 9 13 53 72 75 69
14 16 22 34 34 27 18 15 27 26 21 17 7 21 17 12 16 34 13 9 12 8 6 13 12 12 13 15 18 16 20 15 14 11 6 16 11 12 36 25 8 43 73 63 73
23 33 14 23 18 15 15 28 34 32 20 42 26 6 16 27 25 50 34 30 30 39 7 4 7 13 10 11 10 28 24 24 16 16 17 10 17 22 9 10 13 7 60 70 76
Wind_Direction_850mb
357 354 353 350 345 341 335 328 324 322 321 321 317 308 304 300 290 280 266 259 255 227 271 264 254 275 276 267 274 281 307 275 279 304 209 136 130 231 120 82 111 130 135 141 138
351 351 349 348 345 341 338 332 323 318 317 317 316 309 306 306 304 282 285 258 224 232 267 267 249 232 243 258 252 216 249 257 271 282 242 133 122 121 107 74 96 111 126 139 155
348 347 345 343 342 339 338 333 326 319 313 312 312 306 306 315 318 315 345 240 232 231 250 251 252 274 251 242 245 246 236 263 275 292 135 145 126 132 143 124 133 137 143 135 124
345 342 341 339 338 336 334 332 328 321 312 308 306 300 302 309 290 333 323 328 240 232 244 228 251 268 258 240 248 218 244 246 265 279 83 150 140 125 122 126 138 138 129 139 132
344 340 339 337 335 333 330 329 326 321 310 301 299 293 300 300 260 288 301 325 235 213 209 197 246 262 256 254 256 241 244 245 259 269 109 128 112 126 134 130 144 140 132 131 129
345 341 338 335 333 331 328 326 322 319 306 293 290 283 287 259 131 252 294 237 232 198 187 219 244 245 254 262 243 263 226 246 262 250 117 114 133 100 165 137 143 138 147 143 139
346 343 339 335 331 329 327 323 320 316 303 285 280 274 269 249 153 255 295 262 193 206 212 228 252 260 271 291 272 278 224 246 265 227 154 136 103 110 153 153 156 151 147 142 136
344 342 340 336 331 328 326 321 317 311 297 276 268 266 263 275 228 224 219 257 221 205 236 266 288 269 290 296 308 273 289 257 257 200 206 161 137 154 157 156 147 146 147 133 135
341 339 339 338 332 328 327 318 314 308 289 261 259 252 268 304 237 212 216 226 221 230 247 259 310 312 281 292 314 264 221 238 262 207 173 154 128 158 159 157 153 148 152 141 132
340 337 337 338 334 330 333 320 321 295 266 250 227 285 256 238 213 219 212 228 214 223 230 242 262 241 293 265 241 233 214 241 235 217 183 176 141 163 167 164 163 158 154 145 144
342 337 335 337 335 331 344 349 2 356 222 240 253 222 285 270 217 200 213 221 230 217 206 228 184 222 231 238 245 260 264 254 275 179 154 156 135 169 175 169 164 166 153 155 154
345 340 335 336 334 334 355 352 330 301 298 275 262 250 261 261 270 204 207 209 239 215 218 261 221 238 239 239 241 251 260 274 295 131 114 187 153 166 180 196 172 165 157 155 151
343 342 338 337 335 335 331 348 345 321 284 286 249 236 235 250 253 194 198 204 214 230 244 205 240 225 241 254 256 251 242 267 191 174 184 134 99 135 199 211 180 169 164 160 156
340 341 338 337 356 318 360 339 316 332 302 271 195 248 223 232 265 237 198 202 218 237 230 248 248 249 244 242 244 260 249 262 256 172 186 166 218 197 192 168 219 213 155 157 157
340 337 337 329 327 346 323 333 339 325 335 324 151 180 182 199 162 219 221 197 208 228 237 251 248 255 252 226 251 239 290 272 256 105 72 256 125 222 156 85 354 303 190 168 166
342 337 332 327 328 339 357 333 326 336 253 284 132 166 168 198 226 250 211 223 216 233 264 259 271 264 239 253 227 234 248 288 278 126 117 240 171 238 172 147 145 200 195 167 168
341 334 322 319 301 300 298 347 6 232 311 264 28 212 191 202 215 238 191 212 218 197 251 276 273 278 267 233 260 236 169 296 345 345 223 344 55 302 201 174 186 194 191 164 160
342 335 325 6 344 342 24 3 253 273 275 322 326 333 298 191 210 214 232 210 220 207 255 229 270 260 261 174 207 226 164 166 200 198 295 1 324 310 202 246 269 202 168 150 159
343 343 2 60 22 14 325 252 242 249 297 326 326 316 321 318 200 199 211 225 206 187 213 249 259 263 229 214 219 269 203 198 226 215 159 200 54 329 213 213 228 206 147 160 176
343 352 21 176 336 233 123 257 291 303 294 294 299 307 308 307 345 359 300 220 217 194 189 235 262 276 282 213 241 178 176 256 344 207 234 144 130 181 233 227 199 183 157 170 171
345 345 200 243 338 211 219 255 291 291 292 301 297 288 292 305 334 331 296 293 206 212 193 214 172 269 300 268 198 284 191 85 123 150 157 140 247 201 223 153 156 159 167 175 170
11 297 181 329 253 243 232 257 304 319 329 316 297 287 298 292 295 301 309 293 304 305 258 199 173 217 243 276 272 197 222 162 124 251 59 130 240 264 134 182 178 156 162 169 169
336 282 329 208 277 331 357 345 334 352 323 1 320 319 304 295 308 284 289 292 303 322 327 210 212 209 270 300 303 253 249 158 112 83 164 129 252 183 6 92 132 146 162 166 164
340 312 352 344 7 19 358 313 333 325 315 18 334 302 356 321 294 291 287 287 338 323 339 290 182 177 206 197 217 233 295 18 141 126 180 191 173 164 83 356 155 153 160 166 168
8 358 11 331 335 323 306 286 297 302 332 10 340 26 28 312 327 348 357 332 350 329 332 57 247 181 188 193 214 212 258 262 121 233 126 275 192 185 157 212 157 154 160 164 164
32 356 339 302 308 315 298 316 330 356 10 338 57 346 356 354 322 310 338 316 303 312 2 4 312 295 210 205 221 224 188 235 255 130 189 101 36 123 187 174 221 146 162 162 154
19 351 313 291 296 294 334 338 328 347 7 353 336 277 306 295 205 280 255 265 261 280 270 45 51 13 296 236 250 259 197 202 226 225 164 177 183 125 185 124 88 130 163 154 151